Flag for U.S.A. Weather past 2 weeks in Santa Clarita, California, U.S.A.

Now
67 °F

Clear.


Feels Like: 67 °F
Forecast: 53 / 63 °F
Wind: No wind

Location: Van Nuys Airport

Current Time: Jan 25, 2015 at 8:22:53 PM

Latest Report: Jan 25, 2015 at 6:51 PM


Visibility: 10 mi

Pressure: 29.99 "Hg

Humidity: 29%

Dew point: 33 °F

Location of Santa ClaritaLocation

Historic Weather in Santa Clarita — Graph

°F

Santa Clarita temperature yesterday

Maximum temperature yesterday: 77 °F (at 1:51 PM)
Minimum temperature yesterday: 58 °F (at 11:51 PM)
Average temperature yesterday: 69 °F

Past Weeks' High & Low Weather Summary

 TemperatureHumidityPressure
High80 °F (Jan 25, 12:51 PM)97% (Jan 10, 10:59 PM)30.27 "Hg (Jan 10, 10:59 PM)
Low43 °F (Jan 15, 6:51 AM)11% (Jan 23, 11:51 AM)29.90 "Hg (Jan 20, 1:51 PM)
Average60 °F51%30.09 "Hg
* Reported Jan 10 5:58 PM — Jan 25 5:51 PM, Santa Clarita, Weather by CustomWeather, © 2014

Note: Actual official high and low records may vary slightly from our data, if they occured in-between our weather recording intervals... More about our weather records

Advertising

Santa Clarita weather history for previous 24 hours

 ConditionsComfort  
Time TempWeatherWind HumidityBarometerVisibility
5:51 PM
Jan 25
72 °FClear.No wind22%29.98 "Hg10 mi
4:51 PM76 °FSunny.3 mph19%29.97 "Hg10 mi
3:51 PM74 °FSunny.6 mph22%29.96 "Hg10 mi
2:51 PM75 °FSunny.10 mph24%29.95 "Hg10 mi
1:51 PM79 °FSunny.10 mph18%29.95 "Hg10 mi
12:51 PM80 °FSunny.5 mph18%29.96 "Hg10 mi
11:51 AM78 °FSunny.7 mph20%29.99 "Hg10 mi
10:51 AM77 °FSunny.8 mph24%30.01 "Hg10 mi
9:51 AM79 °FSunny.No wind20%30.01 "Hg10 mi
8:51 AM73 °FSunny.13 mph19%30.02 "Hg10 mi
7:51 AM68 °FSunny.13 mph22%30.01 "Hg10 mi
6:51 AM65 °FClear.13 mph22%30.01 "Hg10 mi
5:51 AM65 °FClear.7 mph20%30.01 "Hg10 mi
4:51 AM54 °FClear.No wind35%30.01 "Hg10 mi
3:51 AM50 °FClear.5 mph44%30.01 "Hg10 mi
2:51 AM53 °FClear.No wind38%30.02 "Hg10 mi
1:51 AM54 °FClear.No wind35%30.02 "Hg10 mi
12:51 AM54 °FClear.No wind35%30.03 "Hg10 mi
11:51 PM
Jan 24
58 °FClear.No wind28%30.03 "Hg10 mi
10:51 PM59 °FClear.No wind27%30.04 "Hg10 mi
9:51 PM60 °FClear.3 mph26%30.04 "Hg10 mi
8:51 PM64 °FClear.3 mph20%30.03 "Hg10 mi
Weather by CustomWeather, © 2014

See weather overviewHow to use our weather pages